Volver al catálogo

SCOUT X-4 DEB

ActivoPO
NORAD 805·DEBRIS·🇺🇸 United States

Lanzado Jun 4, 1964 desde Vandenberg Space Force Base

Loading…

Próximos Pases (próximas 24 horas)

TLE

ActualizadoSource: Space-Track

Época: Sep 14, 2026, 03:46 UTC

1 00805U 64026B   26257.15700880  .00000953  00000-0  32120-3 0  9990
2 00805  89.8543 327.3544 0026956 247.1633 112.6719 14.36240628202809

Sigue SCOUT X-4 DEB en tiempo real con AllMySat

Download on the App Store